This is the latest recevied weather packets stored in our database for station/object KB1FFS. If no packets are shown the sender has not sent any weather packets the latest 1 day(s).
| Time | Temp. | Humidity | Pressure | Rain* | Wind** | Luminosity | Snow |
|---|---|---|---|---|---|---|---|
| 1778007027 | 31.11° C | 54% | 1005.4 hPa | 0 mm | 0.45 m/s, 325° | 587 W/m² | - |
| 1778006724 | 31.11° C | 55% | 1005.5 hPa | 0 mm | 1.34 m/s, 355° | 549 W/m² | - |
| 1778006421 | 30.56° C | 56% | 1005.4 hPa | 0 mm | 1.34 m/s, 28° | 805 W/m² | - |
| 1778006118 | 30° C | 58% | 1005.8 hPa | 0 mm | 0.89 m/s, 25° | 595 W/m² | - |
| 1778005815 | 30° C | 57% | 1005.4 hPa | 0 mm | 1.34 m/s, 22° | 393 W/m² | - |
| 1778005512 | 30° C | 56% | 1006.1 hPa | 0 mm | 1.34 m/s, 10° | 445 W/m² | - |
| 1778005208 | 30° C | 57% | 1005.9 hPa | 0 mm | 1.34 m/s, 5° | 518 W/m² | - |
| 1778004905 | 30° C | 57% | 1005.9 hPa | 0 mm | 0.89 m/s, 324° | 394 W/m² | - |
| 1778004602 | 30° C | 59% | 1005.5 hPa | 0 mm | 0.89 m/s, 341° | 442 W/m² | - |
| 1778004298 | 30° C | 59% | 1006 hPa | 0 mm | 0.89 m/s, 354° | 425 W/m² | - |
| 1778003995 | 30° C | 58% | 1006 hPa | 0 mm | 0.89 m/s, 353° | 358 W/m² | - |
| 1778003691 | 30.56° C | 59% | 1006 hPa | 0 mm | 0.45 m/s, 350° | 409 W/m² | - |
| 1778003388 | 30° C | 57% | 1006 hPa | 0 mm | 0.89 m/s, 355° | 654 W/m² | - |
| 1778003085 | 30° C | 58% | 1005.9 hPa | 0 mm | 0.89 m/s, 64° | 547 W/m² | - |
| 1778002781 | 30° C | 59% | 1005.9 hPa | 0 mm | 0.45 m/s, 1° | 404 W/m² | - |
| 1778002478 | 30° C | 60% | 1005.8 hPa | 0 mm | 0.89 m/s, 351° | 476 W/m² | - |
| 1778002175 | 30° C | 61% | 1006 hPa | 0 mm | 0.45 m/s, 3° | 695 W/m² | - |
| 1778001873 | 29.44° C | 61% | 1005.8 hPa | 0 mm | 2.24 m/s, 41° | 433 W/m² | - |
| 1778001572 | 28.89° C | 63% | 1005.8 hPa | 0 mm | 0 m/s | 407 W/m² | - |
| 1778001270 | 28.89° C | 62% | 1006 hPa | 0 mm | 0.89 m/s, 349° | 409 W/m² | - |
| 1778000966 | 28.89° C | 62% | 1005.9 hPa | 0 mm | 0.89 m/s, 347° | 375 W/m² | - |
| 1778000663 | 28.89° C | 63% | 1005.9 hPa | 0 mm | 0.45 m/s, 42° | 380 W/m² | - |
| 1778000358 | 28.89° C | 62% | 1005.9 hPa | 0 mm | 0 m/s | 416 W/m² | - |
| 1778000054 | 28.33° C | 63% | 1006 hPa | 0 mm | 0.89 m/s, 353° | 426 W/m² | - |
| 1777999749 | 28.33° C | 64% | 1006.1 hPa | 0 mm | 0.89 m/s, 343° | 424 W/m² | - |
* Rain latest hour (hover to see other rain measurements)
** Current wind speed in m/s (hover to see current wind gust speed)